Regional Weather Roundup
Issued by NWS

Home | Current Version | Previous Version | Text Only | Print | Product List | Glossary On
Versions: 1 2 3 4 5 6 7 8 9 10 11 12 13 14 15 16 17 18 19 20 21 22 23 24 25 26 27 28 29 30 31 32 33 34 35 36 37 38 39 40 41 42 43 44 45 46 47 48 49 50
000
ASUS45 KREV 251010
RWRNV
NEVADA REGIONAL WEATHER ROUNDUP
NATIONAL WEATHER SERVICE RENO NV
300 AM PDT SAT MAR 25 2017

NOTE: "FAIR" INDICATES FEW OR NO CLOUDS BELOW 12,000 FEET WITH NO
SIGNIFICANT WEATHER AND/OR OBSTRUCTIONS TO VISIBILITY.

NVZ001-003-004-251100-
WESTERN NEVADA

CITY           SKY/WX    TMP DP  RH WIND       PRES   REMARKS
RENO           MOCLDY    41  33  73 NE5       30.10F
CARSON CITY    CLOUDY    41  36  81 CALM      30.11S
MINDEN         FAIR      37  32  81 CALM      30.10F
FALLON         CLOUDY    42  31  64 NW6       30.08F
LOVELOCK       CLOUDY    41  34  76 NE8       30.09F
HAWTHORNE      CLOUDY    48  34  57 NW13      30.07S
$$

NVZ002-CAZ072-073-251100-
NORTHERN AND CENTRAL SIERRA

CITY           SKY/WX    TMP DP  RH WIND       PRES   REMARKS
S. LAKE TAHOE  CLOUDY    33  32  96 CALM      30.10F
TRUCKEE        CLOUDY    32  32 100 CALM      30.11S
SQUAW VLY 8000   N/A     28  28 100 SW6         N/A
SUSANVILLE     PTCLDY    37  36  93 CALM      30.13
MAMMOTH LAKES  FAIR      35  28  75 CALM      30.09F
BRIDGEPORT       N/A     34  26  72 VRB5      30.05F
$$

NVZ030-031-036-251100-
NORTHERN NEVADA

CITY           SKY/WX    TMP DP  RH WIND       PRES   REMARKS
ELKO           CLOUDY    41  37  86 SW3       30.07S
WINNEMUCCA     CLOUDY    37  33  85 CALM      30.10F
WENDOVER       LGT RAIN  49  38  65 NW15      30.03S
$$

NVZ035-037-251100-
CENTRAL NEVADA

CITY           SKY/WX    TMP DP  RH WIND       PRES   REMARKS
ELY            CLOUDY    39  33  79 N12G18    30.07F
EUREKA           N/A     38  34  85 CALM      30.07
$$

NVZ013-014-251100-
SOUTH CENTRAL NEVADA

CITY           SKY/WX    TMP DP  RH WIND       PRES   REMARKS
TONOPAH        LGT RAIN  40  37  89 NE9       30.07F
$$

NVZ017-020-022-251100-
SOUTHERN NEVADA

CITY           SKY/WX    TMP DP  RH WIND       PRES   REMARKS
LAS VEGAS      CLOUDY    66  30  26 S10       29.96F
N. LAS VEGAS   CLOUDY    67  31  26 S13       29.96F
NELLIS AFB     CLOUDY    67  31  25 SE14      29.96F
HENDERSON      CLOUDY    63  32  31 SW15      30.01S
MERCURY        CLOUDY    61  37  41 S22G32    29.95F
$$



USA.gov is the U.S. government's official web portal to all federal, state and local government web resources and services.